Location: Innsbruck
(47.2657°N, 11.3914°E)
Time: 02:25:25
(UTC+01:00)

XW-2F - Pass Details

Date: 08 December 2021
Orbit: 495 x 515 km, 97.5° (Epoch: 16 January)

Event Time Altitude Azimuth Distance (km) Brightness Sun altitude
Rises 06:53:05 0° 8° (N) 2,651 ? -9.0°
Reaches altitude 10° 06:55:13 10° 4° (N) 1,757 ? -8.7°
Maximum altitude 06:58:55 55° 287° (WNW) 627 ? -8.1°
Drops below altitude 10° 07:02:35 10° 209° (SSW) 1,735 ? -7.6°
Sets 07:04:41 0° 205° (SSW) 2,614 ? -7.3°
